| time (UTC) | temp F | wind direction | speed knots | gust knots | rain 1hr in | rain 24hr in | rain mn in | humidity % | barometer mb |
| 20260505081533 | 64 | 92 | 0.0 | 1.7 | 0.00 | 0.00 | 0.00 | 89 | 1015.1 |
| 20260505081005 | 64 | 92 | 0.0 | 1.7 | 0.00 | 0.00 | 0.00 | 89 | 1015.2 |
| 20260505080506 | 64 | 92 | 0.0 | 0.9 | 0.00 | 0.00 | 0.00 | 89 | 1015.2 |
| 20260505080017 | 64 | 91 | 0.0 | 2.6 | 0.00 | 0.00 | 0.00 | 89 | 1015.2 |
| 20260505075503 | 64 | 89 | 0.0 | 2.6 | 0.00 | 0.00 | 0.00 | 89 | 1015.2 |
| 20260505075007 | 64 | 72 | 0.9 | 2.6 | 0.00 | 0.00 | 0.00 | 89 | 1015.4 |
| 20260505074524 | 64 | 73 | 0.0 | 3.5 | 0.00 | 0.00 | 0.00 | 89 | 1015.4 |
| 20260505074007 | 64 | 75 | 0.9 | 3.5 | 0.00 | 0.00 | 0.00 | 89 | 1015.4 |
| 20260505073040 | 64 | 82 | 0.0 | 1.7 | 0.00 | 0.00 | 0.00 | 88 | 1015.5 |
| 20260505072513 | 64 | 109 | 0.0 | 0.9 | 0.00 | 0.00 | 0.00 | 88 | 1015.5 |
| 20260505072007 | 65 | 111 | 0.0 | 0.9 | 0.00 | 0.00 | 0.00 | 87 | 1015.5 |
| 20260505071521 | 65 | 114 | 0.0 | 0.0 | 0.00 | 0.00 | 0.00 | 86 | 1015.4 |
| 20260505071007 | 65 | 114 | 0.0 | 0.0 | 0.00 | 0.00 | 0.00 | 86 | 1015.4 |
| 20260505070512 | 65 | 114 | 0.0 | 0.0 | 0.00 | 0.00 | 0.00 | 86 | 1015.4 |
| 20260505070022 | 66 | 114 | 0.0 | 0.9 | 0.00 | 0.00 | 0.00 | 85 | 1015.5 |
| 20260505065505 | 66 | 114 | 0.0 | 0.9 | 0.00 | 0.00 | 0.00 | 85 | 1015.5 |
| 20260505065006 | 66 | 114 | 0.0 | 1.7 | 0.00 | 0.00 | 0.00 | 85 | 1015.5 |
| 20260505064535 | 66 | 114 | 0.0 | 1.7 | 0.00 | 0.00 | 0.00 | 85 | 1015.7 |
| 20260505064007 | 67 | 106 | 0.0 | 1.7 | 0.00 | 0.00 | 0.00 | 84 | 1015.9 |
| 20260505063509 | 67 | 109 | 0.0 | 2.6 | 0.00 | 0.00 | 0.00 | 84 | 1016.0 |
| 20260505063022 | 67 | 101 | 0.9 | 6.1 | 0.00 | 0.00 | 0.00 | 84 | 1015.9 |
| 20260505062011 | 67 | 72 | 0.9 | 3.5 | 0.00 | 0.00 | 0.00 | 84 | 1016.0 |
| 20260505061539 | 67 | 87 | 0.9 | 5.2 | 0.00 | 0.00 | 0.00 | 84 | 1015.9 |
| 20260505061003 | 67 | 73 | 0.9 | 4.3 | 0.00 | 0.00 | 0.00 | 84 | 1016.1 |
| 20260505060505 | 67 | 97 | 1.7 | 5.2 | 0.00 | 0.00 | 0.00 | 84 | 1016.0 |
| 20260505055506 | 68 | 79 | 0.9 | 4.3 | 0.00 | 0.00 | 0.00 | 83 | 1016.1 |
| 20260505055007 | 68 | 69 | 0.9 | 4.3 | 0.00 | 0.00 | 0.00 | 83 | 1016.3 |
| 20260505054007 | 68 | 64 | 0.9 | 7.0 | 0.00 | 0.00 | 0.00 | 83 | 1016.3 |
| 20260505053508 | 68 | 65 | 1.7 | 7.0 | 0.00 | 0.00 | 0.00 | 83 | 1016.4 |
| 20260505053005 | 68 | 82 | 0.9 | 6.1 | 0.00 | 0.00 | 0.00 | 83 | 1016.4 |
| 20260505052504 | 68 | 59 | 2.6 | 6.1 | 0.00 | 0.00 | 0.00 | 83 | 1016.5 |
| 20260505052004 | 68 | 81 | 1.7 | 4.3 | 0.00 | 0.00 | 0.00 | 83 | 1016.5 |
| 20260505051507 | 68 | 71 | 0.9 | 3.5 | 0.00 | 0.00 | 0.00 | 83 | 1016.7 |
| 20260505051006 | 68 | 70 | 0.9 | 3.5 | 0.00 | 0.00 | 0.00 | 83 | 1016.5 |
| 20260505050506 | 68 | 81 | 1.7 | 3.5 | 0.00 | 0.00 | 0.00 | 83 | 1016.6 |
| 20260505041511 | 68 | 71 | 0.9 | 3.5 | 0.00 | 0.00 | 0.00 | 82 | 1017.2 |
| 20260505041004 | 68 | 60 | 0.9 | 2.6 | 0.00 | 0.00 | 0.00 | 82 | 1017.1 |
| 20260505040503 | 68 | 69 | 0.9 | 3.5 | 0.00 | 0.00 | 0.00 | 81 | 1017.2 |
| 20260505040011 | 68 | 68 | 1.7 | 5.2 | 0.00 | 0.00 | 0.00 | 81 | 1017.0 |
| 20260505035502 | 68 | 71 | 0.9 | 6.1 | 0.00 | 0.00 | 0.00 | 81 | 1017.0 |
| 20260505035003 | 68 | 92 | 1.7 | 6.1 | 0.00 | 0.00 | 0.00 | 80 | 1017.0 |
| 20260505034513 | 68 | 93 | 1.7 | 6.1 | 0.00 | 0.00 | 0.00 | 80 | 1017.0 |
| 20260505034006 | 68 | 107 | 0.9 | 3.5 | 0.00 | 0.00 | 0.00 | 79 | 1017.1 |
| 20260505033503 | 68 | 71 | 0.9 | 3.5 | 0.00 | 0.00 | 0.00 | 79 | 1017.0 |
| 20260505033020 | 68 | 90 | 0.9 | 3.5 | 0.00 | 0.00 | 0.00 | 79 | 1017.1 |
| 20260505032506 | 68 | 74 | 0.0 | 4.3 | 0.00 | 0.00 | 0.00 | 78 | 1017.2 |
| 20260505032003 | 69 | 80 | 0.9 | 4.3 | 0.00 | 0.00 | 0.00 | 78 | 1017.3 |
| 20260505031535 | 69 | 86 | 1.7 | 5.2 | 0.00 | 0.00 | 0.00 | 78 | 1017.2 |
| 20260505031009 | 69 | 70 | 0.9 | 5.2 | 0.00 | 0.00 | 0.00 | 78 | 1017.1 |
| 20260505030503 | 69 | 66 | 0.9 | 5.2 | 0.00 | 0.00 | 0.00 | 77 | 1017.2 |
| 20260505030009 | 69 | 96 | 2.6 | 6.1 | 0.00 | 0.00 | 0.00 | 77 | 1017.0 |
| 20260505025504 | 69 | 71 | 1.7 | 6.1 | 0.00 | 0.00 | 0.00 | 76 | 1016.9 |
| 20260505025004 | 69 | 89 | 2.6 | 5.2 | 0.00 | 0.00 | 0.00 | 76 | 1016.9 |
| 20260505024519 | 69 | 34 | 1.7 | 7.0 | 0.00 | 0.00 | 0.00 | 76 | 1017.0 |
| 20260505024003 | 69 | 62 | 2.6 | 7.0 | 0.00 | 0.00 | 0.00 | 76 | 1017.1 |
| 20260505023503 | 70 | 86 | 2.6 | 6.1 | 0.00 | 0.00 | 0.00 | 75 | 1017.1 |
| 20260505023010 | 70 | 76 | 2.6 | 7.8 | 0.00 | 0.00 | 0.00 | 75 | 1017.1 |
| 20260505022503 | 70 | 106 | 2.6 | 7.8 | 0.00 | 0.00 | 0.00 | 75 | 1017.0 |
| 20260505022007 | 70 | 76 | 2.6 | 7.8 | 0.00 | 0.00 | 0.00 | 74 | 1016.9 |
| 20260505021526 | 70 | 74 | 1.7 | 5.2 | 0.00 | 0.00 | 0.00 | 74 | 1016.9 |
| 20260505021006 | 70 | 111 | 1.7 | 5.2 | 0.00 | 0.00 | 0.00 | 73 | 1016.8 |
| 20260505020028 | 70 | 81 | 1.7 | 6.1 | 0.00 | 0.00 | 0.00 | 72 | 1016.7 |
| 20260505015513 | 70 | 97 | 2.6 | 8.7 | 0.00 | 0.00 | 0.00 | 72 | 1016.7 |
| 20260505015004 | 71 | 71 | 3.5 | 8.7 | 0.00 | 0.00 | 0.00 | 72 | 1016.6 |
| 20260505014507 | 71 | 79 | 2.6 | 7.8 | 0.00 | 0.00 | 0.00 | 72 | 1016.6 |
| 20260505014003 | 71 | 102 | 2.6 | 7.8 | 0.00 | 0.00 | 0.00 | 72 | 1016.5 |
| 20260505013504 | 71 | 67 | 2.6 | 7.8 | 0.00 | 0.00 | 0.00 | 71 | 1016.8 |
| 20260505013012 | 71 | 78 | 0.9 | 8.7 | 0.00 | 0.00 | 0.00 | 72 | 1016.6 |
| 20260505012503 | 71 | 87 | 3.5 | 8.7 | 0.00 | 0.00 | 0.00 | 71 | 1016.5 |
| 20260505012007 | 71 | 92 | 1.7 | 6.1 | 0.00 | 0.00 | 0.00 | 71 | 1016.4 |
| 20260505011511 | 71 | 93 | 2.6 | 7.8 | 0.00 | 0.00 | 0.00 | 70 | 1016.5 |
| 20260505011006 | 72 | 115 | 3.5 | 7.8 | 0.00 | 0.00 | 0.00 | 70 | 1016.3 |
| 20260505010508 | 72 | 90 | 2.6 | 6.1 | 0.00 | 0.00 | 0.00 | 70 | 1016.2 |
| 20260505005008 | 72 | 82 | 2.6 | 7.0 | 0.00 | 0.00 | 0.00 | 69 | 1016.2 |
| 20260505004542 | 72 | 88 | 3.5 | 7.8 | 0.00 | 0.00 | 0.00 | 69 | 1016.2 |
| 20260505004003 | 73 | 93 | 3.5 | 8.7 | 0.00 | 0.00 | 0.00 | 68 | 1016.2 |
| 20260505003503 | 73 | 83 | 2.6 | 9.6 | 0.00 | 0.00 | 0.00 | 68 | 1016.3 |
| 20260505003012 | 73 | 75 | 4.3 | 9.6 | 0.00 | 0.00 | 0.00 | 67 | 1016.1 |
| 20260505002509 | 73 | 108 | 4.3 | 8.7 | 0.00 | 0.00 | 0.00 | 68 | 1016.0 |
| 20260505002012 | 73 | 142 | 3.5 | 8.7 | 0.00 | 0.00 | 0.00 | 67 | 1015.9 |
| 20260505001514 | 74 | 105 | 2.6 | 7.8 | 0.00 | 0.00 | 0.00 | 68 | 1015.9 |
| 20260505001012 | 74 | 122 | 3.5 | 7.8 | 0.00 | 0.00 | 0.00 | 67 | 1015.8 |
| 20260505000503 | 74 | 113 | 3.5 | 11.3 | 0.00 | 0.00 | 0.00 | 66 | 1015.5 |
| 20260505000034 | 75 | 75 | 3.5 | 11.3 | 0.00 | 0.00 | 0.00 | 66 | 1015.5 |
| 20260504235507 | 75 | 79 | 1.7 | 8.7 | 0.00 | 0.00 | 0.00 | 66 | 1015.5 |
| 20260504235003 | 75 | 95 | 4.3 | 8.7 | 0.00 | 0.00 | 0.00 | 65 | 1015.6 |
| 20260504234515 | 76 | 92 | 0.9 | 8.7 | 0.00 | 0.00 | 0.00 | 65 | 1015.4 |
| 20260504234008 | 76 | 71 | 3.5 | 8.7 | 0.00 | 0.00 | 0.00 | 64 | 1015.4 |
| 20260504233513 | 76 | 61 | 2.6 | 11.3 | 0.00 | 0.00 | 0.00 | 63 | 1015.3 |
| 20260504233014 | 76 | 132 | 3.5 | 13.0 | 0.00 | 0.00 | 0.00 | 62 | 1015.2 |
| 20260504232505 | 77 | 113 | 7.0 | 13.0 | 0.00 | 0.00 | 0.00 | 61 | 1015.2 |
| 20260504232004 | 77 | 121 | 5.2 | 12.2 | 0.00 | 0.00 | 0.00 | 61 | 1015.2 |
| 20260504231510 | 78 | 67 | 5.2 | 12.2 | 0.00 | 0.00 | 0.00 | 61 | 1015.3 |
| 20260504231004 | 78 | 80 | 2.6 | 12.2 | 0.00 | 0.00 | 0.00 | 61 | 1015.2 |
| 20260504230507 | 78 | 95 | 5.2 | 12.2 | 0.00 | 0.00 | 0.00 | 59 | 1015.1 |
| 20260504230016 | 79 | 69 | 4.3 | 11.3 | 0.00 | 0.00 | 0.00 | 60 | 1015.0 |
| 20260504225503 | 79 | 65 | 7.8 | 11.3 | 0.00 | 0.00 | 0.00 | 59 | 1015.0 |
| 20260504225012 | 79 | 98 | 4.3 | 10.4 | 0.00 | 0.00 | 0.00 | 59 | 1015.0 |
| 20260504224521 | 79 | 97 | 4.3 | 10.4 | 0.00 | 0.00 | 0.00 | 59 | 1015.2 |
| 20260504224012 | 79 | 59 | 5.2 | 10.4 | 0.00 | 0.00 | 0.00 | 59 | 1015.2 |
| 20260504223507 | 79 | 57 | 4.3 | 9.6 | 0.00 | 0.00 | 0.00 | 58 | 1015.2 |
| 20260504223020 | 80 | 97 | 3.5 | 9.6 | 0.00 | 0.00 | 0.00 | 57 | 1015.1 |
| 20260504222510 | 80 | 119 | 5.2 | 12.2 | 0.00 | 0.00 | 0.00 | 56 | 1015.2 |
| 20260504222003 | 80 | 94 | 5.2 | 12.2 | 0.00 | 0.00 | 0.00 | 56 | 1015.2 |
| 20260504221518 | 80 | 98 | 5.2 | 11.3 | 0.00 | 0.00 | 0.00 | 57 | 1015.1 |
| 20260504221008 | 81 | 64 | 5.2 | 11.3 | 0.00 | 0.00 | 0.00 | 56 | 1015.1 |
| 20260504220505 | 82 | 111 | 7.0 | 11.3 | 0.00 | 0.00 | 0.00 | 54 | 1015.1 |
| 20260504220016 | 83 | 88 | 5.2 | 12.2 | 0.00 | 0.00 | 0.00 | 52 | 1015.1 |
| 20260504215507 | 84 | 31 | 2.6 | 12.2 | 0.00 | 0.00 | 0.00 | 52 | 1015.1 |
| 20260504215008 | 84 | 34 | 5.2 | 13.9 | 0.00 | 0.00 | 0.00 | 52 | 1015.1 |
| 20260504213508 | 84 | 67 | 3.5 | 11.3 | 0.00 | 0.00 | 0.00 | 53 | 1015.0 |
| 20260504213023 | 83 | 23 | 6.1 | 10.4 | 0.00 | 0.00 | 0.00 | 53 | 1015.0 |
| 20260504212507 | 83 | 71 | 5.2 | 12.2 | 0.00 | 0.00 | 0.00 | 53 | 1015.0 |
| 20260504211525 | 84 | 66 | 3.5 | 13.9 | 0.00 | 0.00 | 0.00 | 52 | 1014.9 |
| 20260504211007 | 83 | 113 | 6.1 | 16.5 | 0.00 | 0.00 | 0.00 | 54 | 1015.1 |
| 20260504210507 | 83 | 83 | 7.0 | 16.5 | 0.00 | 0.00 | 0.00 | 51 | 1015.0 |
| 20260504210022 | 84 | 28 | 3.5 | 13.0 | 0.00 | 0.00 | 0.00 | 50 | 1015.0 |
| 20260504205505 | 84 | 115 | 4.3 | 11.3 | 0.00 | 0.00 | 0.00 | 51 | 1015.0 |
| 20260504205008 | 84 | 40 | 6.1 | 13.0 | 0.00 | 0.00 | 0.00 | 52 | 1015.1 |
| 20260504204516 | 83 | 98 | 7.0 | 13.0 | 0.00 | 0.00 | 0.00 | 54 | 1015.1 |
| 20260504204010 | 83 | 60 | 5.2 | 13.9 | 0.00 | 0.00 | 0.00 | 51 | 1015.1 |
| 20260504203514 | 84 | 41 | 5.2 | 13.9 | 0.00 | 0.00 | 0.00 | 52 | 1015.0 |
| 20260504203018 | 84 | 30 | 7.8 | 11.3 | 0.00 | 0.00 | 0.00 | 51 | 1015.1 |
| 20260504202513 | 84 | 63 | 4.3 | 15.6 | 0.00 | 0.00 | 0.00 | 53 | 1015.3 |
| 20260504202012 | 84 | 47 | 7.0 | 15.6 | 0.00 | 0.00 | 0.00 | 50 | 1015.2 |
| 20260504201518 | 84 | 75 | 3.5 | 11.3 | 0.00 | 0.00 | 0.00 | 51 | 1015.2 |
| 20260504200509 | 85 | 80 | 6.1 | 14.8 | 0.00 | 0.00 | 0.00 | 49 | 1015.4 |
| 20260504200025 | 86 | 64 | 7.0 | 14.8 | 0.00 | 0.00 | 0.00 | 48 | 1015.4 |
| 20260504195507 | 87 | 83 | 6.1 | 13.9 | 0.00 | 0.00 | 0.00 | 51 | 1015.3 |
| 20260504194518 | 85 | 46 | 4.3 | 13.9 | 0.00 | 0.00 | 0.00 | 49 | 1015.6 |
| 20260504194008 | 85 | 43 | 7.8 | 12.2 | 0.00 | 0.00 | 0.00 | 51 | 1015.7 |
| 20260504193508 | 84 | 49 | 4.3 | 13.0 | 0.00 | 0.00 | 0.00 | 52 | 1015.7 |
| 20260504193019 | 84 | 80 | 4.3 | 13.0 | 0.00 | 0.00 | 0.00 | 51 | 1015.8 |
| 20260504192508 | 85 | 34 | 5.2 | 11.3 | 0.00 | 0.00 | 0.00 | 49 | 1015.7 |
| 20260504191526 | 85 | 103 | 7.0 | 11.3 | 0.00 | 0.00 | 0.00 | 48 | 1015.8 |
| 20260504191007 | 85 | 103 | 5.2 | 10.4 | 0.00 | 0.00 | 0.00 | 48 | 1015.9 |
| 20260504190511 | 85 | 105 | 4.3 | 12.2 | 0.00 | 0.00 | 0.00 | 49 | 1015.9 |
| 20260504185509 | 87 | 85 | 3.5 | 10.4 | 0.00 | 0.00 | 0.00 | 50 | 1016.2 |
| 20260504184522 | 86 | 103 | 4.3 | 10.4 | 0.00 | 0.00 | 0.00 | 51 | 1016.2 |
| 20260504183504 | 85 | 360 | 5.2 | 13.0 | 0.00 | 0.00 | 0.00 | 50 | 1016.5 |
| 20260504183017 | 85 | 78 | 6.1 | 13.0 | 0.00 | 0.00 | 0.00 | 50 | 1016.5 |
| 20260504182508 | 86 | 53 | 6.1 | 11.3 | 0.00 | 0.00 | 0.00 | 48 | 1016.6 |
| 20260504182011 | 85 | 50 | 3.5 | 11.3 | 0.00 | 0.00 | 0.00 | 49 | 1016.6 |
| 20260504181522 | 85 | 40 | 4.3 | 13.0 | 0.00 | 0.00 | 0.00 | 47 | 1016.7 |
| 20260504180513 | 85 | 58 | 3.5 | 9.6 | 0.00 | 0.00 | 0.00 | 51 | 1016.8 |
| 20260504180025 | 85 | 53 | 3.5 | 9.6 | 0.00 | 0.00 | 0.00 | 49 | 1016.8 |
| 20260504175512 | 85 | 57 | 5.2 | 10.4 | 0.00 | 0.00 | 0.00 | 51 | 1017.0 |
| 20260504174525 | 85 | 36 | 2.6 | 10.4 | 0.00 | 0.00 | 0.00 | 47 | 1017.2 |
| 20260504173508 | 84 | 75 | 3.5 | 9.6 | 0.00 | 0.00 | 0.00 | 48 | 1017.2 |
| 20260504172504 | 84 | 101 | 3.5 | 11.3 | 0.00 | 0.00 | 0.00 | 53 | 1017.2 |
| 20260504172004 | 84 | 80 | 2.6 | 11.3 | 0.00 | 0.00 | 0.00 | 51 | 1017.2 |
| 20260504171510 | 84 | 40 | 5.2 | 11.3 | 0.00 | 0.00 | 0.00 | 50 | 1017.2 |
| 20260504171005 | 84 | 11 | 6.1 | 11.3 | 0.00 | 0.00 | 0.00 | 46 | 1017.2 |
| 20260504170505 | 84 | 9 | 3.5 | 10.4 | 0.00 | 0.00 | 0.00 | 49 | 1017.4 |
| 20260504141007 | 76 | 16 | 6.1 | 12.2 | 0.00 | 0.00 | 0.00 | 63 | 1018.1 |
| 20260504130504 | 71 | 352 | 3.5 | 12.2 | 0.00 | 0.00 | 0.00 | 72 | 1017.8 |
| 20260504110506 | 62 | 342 | 0.9 | 4.3 | 0.00 | 0.00 | 0.00 | 88 | 1016.9 |
| 20260504100503 | 62 | 351 | 0.0 | 2.6 | 0.00 | 0.00 | 0.00 | 87 | 1016.5 |
| 20260504082003 | 65 | 5 | 0.9 | 2.6 | 0.00 | 0.04 | 0.00 | 82 | 1016.4 |